Buy-Sell-Trade

buy-sell-trade

Do you have an item you’d like to buy, sell, or trade? Tune in for WRMJ BUY-SELL-TRADE on Saturday mornings at 8:30.

Call 582-5626 to broadcast up to four items! The best part? It’s free!

NOTES:

  • We no longer accept BST items submitted in advance of the program airing. All items must be phoned in during the BST broadcast. 
  • All current and past BST items are now listed together. Use the Search and Sort features to locate the date, type, item or phone number you’re looking for.

TERMS & CONDITIONS.

DATETYPEITEMPHONE
9/3/16FS4 PIECE BEDROOM SET (HEADBOARD, NIGHT STAND, DRESSER, & DRESSER w/MIRROR) - $200309-593-2029
9/3/16FSKITCHEN CUPBOARD & COUNTER309-644-0681
9/3/16FSCHAIR & OTTOMAN - $30309-781-6887
9/3/16LF ALFALFA/GRASS MIX HAY, SQUARE BALES309-373-5077
9/3/16FS5 DRAWER TOOL BOX - $100309-371-9659
9/3/16FS2 - 8 DRAWER TOOL BOXES - $150/BOTH309-371-9659
9/3/16FREEFULL SIZE POOL TABLE309-644-1067
Joy Area
9/3/16LF ELECTRIC DRYER309-314-8544
9/3/16FSSIZE 44 34 LENGTH MEN'S LINED JEANS - $5309-337-9735
9/3/16FSLARGE PLANTERS - $1 or $2309-582-4416
9/3/16FSDOG IGLOO - $15309-582-4416
9/3/16FSMOUNTAIN BIKE - $40309-582-4416
9/3/16FSASSORTED ELECTRICAL EQUIPMENT & SUPPLIES - $800 CALL FOR DETAILS309-582-2633
9/3/16FSTREADMILL - $175309-644-0875
9/3/16FSGAZELLE EXERCISE MACHINE - $20309-644-0875
9/3/16LF14" TIRES309-371-1333
9/3/16LFWINDOW, 4' TALL x 4'4" WIDE309-582-8380
9/3/16FS4 SNOW TIRES, P235 70 R16 - $75 EACH309-798-5443
9/3/16FSLARGE DOG HOUSE, NEEDS NEW FLOOR, 4x6 - $25309-798-5443
9/10/16FS5 DRAWER CHEST309-582-2815
9/10/16FS9 DRAWER DRESSER w/MIRROR309-582-2815
9/10/16FSCHILD'S ZEBRA COSTUME, SIZE 3T-5T - $10309-582-4435
9/10/16FSBLUE & BURGUNDY AREA RUG (7'8" x 10'9") - $50309-582-4435
9/10/16LF15-20 BALES OF STRAW309-371-5566
9/10/16FSALUMINUM TOOL BOX FOR A PICKUP - $100309-337-6173
9/10/16FS40" ROUND WOODEN TABLE - $20309-337-6173
9/10/16FSBOLT-IN 5TH WHEEL KIT FOR PICKUP - $25309-337-6173
9/10/16FSANTIQUE FULL SIZE DRESSER w/MIRROR - $80561-310-7674
in Aledo
9/10/16FSNEW SEWING MACHINE, IN BOX - $50309-337-9735
9/10/16FS 6x10 CARGO TRAILER - $1100309-582-2920
9/10/16`FREEGLASS SNACK TRAYS w/CUPS309-582-5464
9/10/16FSSIMCO SADDLE309-593-2231
9/10/16FSPONY & DRIVING HARNESS309-593-2231
9/10/16FSYAMAHA 700 4-WHEELER w/50" SNOWBLADE & WINCH309-737-3646
9/10/16FS6' x 7' STEEL ROLL-UP DOOR - $100309-337-9983
9/17/16FSOLDER TANNING BED - $150309-337-9735
9/17/16FS8 PIECES OF PLYWOOD - $12 EACH309-737-1723
9/17/16FS2 HITCHING POSTS - $50309-737-1723
9/17/16FSPOWER GREASE GUN w/BUCKET OF GREASE - $100309-738-7820
9/17/16FSHOUSER FOR A JOHN DEERE WALK-BEHIND SNOWBLOWER - $100309-738-7820
9/17/16FSRABBIT CHOW - $5309-738-7820
9/17/16FSPROPANE TURKEY FRYER w/STAND - $15309-945-8796
9/17/16LFSOMEONE TO PICK UP NON-WORKING CHEST FREEZERS309-945-8796
9/17/16FS2002 SALEM 25' CAMPER, LOADED - $6500309-945-8796
9/17/16FSCRAFTSMAN WOOD SHAPER - $200309-224-7849
9/17/16LFPULL BEHIND ROTARY MOWER (BUSH-HOG, etc.)309-464-5724
9/17/16FSPIANO w/BENCH - $200309-299-7335
9/17/16FS36 x 60 STEEL BUILDING ON PALLETS - $15,000309-337-0514 or
309-337-7013
9/24/16LF5'6" TOPPER FOR A 2005 DODGE DAKOTA PICKUP309-738-4876
9/24/16FSBROWN UPHOLSTERED LIFT CHAIR $400309-371-6077
9/24/16FREE6 BAGS OF ASSORTED FABRIC309-867-2642
9/24/16FS10" TABLE SAW $50587-8570
9/24/16FREE8 CHICKENS309-582-6614
9/24/16LFCORELLE PLATES309-738-0972
9/24/16FS150 CONCRETE BLOCKS-ON PALLETS309-337-1344
9/24/16FSCOMPOUND BOW $40309-278-7186
9/24/16FSRECURVED BOW w/ARROWS $20309-278-7186
9/24/16FSHARD CASE FOR A COMPOUND BOW $20309-278-7186
9/24/16FSBAND SAW $20309-278-7186
9/24/16FS9 VOLT DRILL w/2 BATTERIES & CHARGER $65309-221-9791
9/24/16FSHYDRAULIC LIFT CYLINDER FOR A SEMI DUMP TRAILER $1500309-221-9791
9/24/16LF MEDIUM SIZE MOTORCYCLE TO BORROW FOR DRIVER'S TEST309-221-9791
9/24/16FS26" FLAT SCREEN TV w/DVD & REMOTE $60309-351-0411
9/24/16LFPULL TYPE ROTARY MOWER309-464-5724
9/24/16FSSMALL GRAIN WAGONS309-768-2675
9/24/16FSDX75 JOHN DEERE RIDING MOWER $250309-768-2675
9/24/16FREE50" PROJECTION TV309-768-2675